Hourly Data Report for March 22, 2020

All times are specified in Local Standard Time (LST). Add 1 hour to adjust for Daylight Saving Time where and when it is observed.

OTTAWA INTL A
ONTARIO
Current Station Operator: NAVCAN

45°19'00.000" N
75°40'00.000" W
114.90 m
6106001
71628
YOW

Download Data

Hourly Data (March 2020)
Hourly Data Report for March 22, 2020
TIME Temp Definition
°C
Dew Point Definition
°C
Rel Hum Definition
%
Wind Dir Definition
10's deg

Wind Spd Definition
km/h
Visibility Definition
km
Stn Press Definition
kPa
Hmdx Definition


Wind Chill Definition


Weather Definition


00:00 -6.7 -15.6 50 1 12 24.1 102.37   -12 LegendNANA
01:00 -7.3 -15.2 54 2 11 24.1 102.38   -12 Clear
02:00 -8.1 -15.2 57 3 9 24.1 102.41   -13 LegendNANA
03:00 -8.5 -15.0 60 3 5 24.1 102.45   -11 LegendNANA
04:00 -8.9 -13.8 68 2 7 24.1 102.53   -13 Clear
05:00 -9.4 -14.7 66 3 7 24.1 102.61   -13 LegendNANA
06:00 -9.6 -14.2 70 2 6 24.1 102.68   -13 LegendNANA
07:00 -7.9 -13.3 65 2 11 24.1 102.75   -13 Clear
08:00 -6.3 -14.1 55 4 10 24.1 102.79   -11 LegendNANA
09:00 -4.8 -13.9 49 5 12 24.1 102.80   -10 LegendNANA
10:00 -3.6 -14.6 42 4 12 24.1 102.82   -8 Clear
11:00 -3.7 -14.9 42 10 6 24.1 102.80   -6 LegendNANA
12:00 -2.5 -14.4 40 6 12 24.1 102.78   -7 LegendNANA
13:00 -1.7 -13.4 41 11 15 24.1 102.71   -7 Clear
14:00 -1.2 -13.9 38 6 10 24.1 102.61   -5 LegendNANA
15:00 -0.9 -12.7 41 10 11 24.1 102.51   -5 LegendNANA
16:00 -0.8 -12.9 40 11 15 24.1 102.47   -5 Clear
17:00 -1.2 -14.0 37 7 20 24.1 102.42   -7 LegendNANA
18:00 -2.3 -12.9 44 9 16 24.1 102.39   -7 LegendNANA
19:00 -3.3 -12.0 51 8 15 24.1 102.36   -8 Clear
20:00 -4.0 -12.6 52 8 12 24.1 102.31   -9 LegendNANA
21:00 -4.2 -13.7 48 7 18 24.1 102.27   -10 LegendNANA
22:00 -4.5 -12.7 53 7 21 24.1 102.15   -11 Clear
23:00 -4.7 -13.3 51 8 22 24.1 102.09   -12 LegendNANA

Notes on Data Quality.

Legend

  • E = Estimated
  • M = Missing
  • NA = Not Available*
  • [empty] = Indicates an unobserved value
Date modified: